Location: Sortland
(68.7020°N, 15.4240°E)
Time: 15:53:42
(UTC+01:00)

Envisat - Pass Details

Date: 27 October 2019
Orbit: 764 x 766 km, 98.1° (Epoch: 22 November)

Event Time Altitude Azimuth Distance (km) Brightness Sun altitude
Rises 06:06:10 0° 17° (NNE) 3,251 6.3 -9.6°
Reaches altitude 10° 06:08:47 10° 28° (NNE) 2,320 5.7 -9.4°
Maximum altitude 06:13:15 30° 89° (E) 1,369 5.2 -9.0°
Drops below altitude 10° 06:17:41 10° 150° (SSE) 2,308 6.1 -8.6°
Sets 06:20:16 0° 161° (SSE) 3,230 6.7 -8.4°
